This demonstration page uses our WeatherBlox Daily Observations layout. Learn more.

Left ArrowRight Arrow

39.01783, -85.05884

Hourly Observations for July 6, 2021

Temp ( °F °C ) Dew Point ( °F °C ) Humidity (%) Winds ( mph kmh ) Pressure ( in mb ) Visibility ( mi km ) Precip ( " mm )
12:52 am 00:52 Clear 75 23.9 69 20.6 82 82 Calm 30.06 1018 10 16 0.00 0.00
1:52 am 01:52 Clear 74 23.3 70 21.1 88 88 Calm 30.06 1018 10 16 0.00 0.00
2:52 am 02:52 Clear 72 22.2 68 20 87 87 SW 3 6 30.05 1018 10 16 0.00 0.00
3:52 am 03:52 Clear 74 23.3 69 20.6 85 85 Calm 30.05 1018 10 16 0.00 0.00
4:52 am 04:52 Clear 72 22.2 69 20.6 91 91 Calm 30.05 1018 10 16 0.00 0.00
5:52 am 05:52 Clear 72 22.2 68 20 87 87 Calm 30.06 1018 10 16 0.00 0.00
6:52 am 06:52 Sunny 73 22.8 68 20 84 84 NW 5 7 30.07 1018 7 11 0.00 0.00
7:52 am 07:52 Hazy 75 23.9 70 21.1 84 84 Calm 30.08 1019 6 10 0.00 0.00
8:52 am 08:52 Mostly Sunny 80 26.7 71 21.7 74 74 Calm 30.09 1019 8 13 0.00 0.00
9:52 am 09:52 Partly Cloudy 83 28.3 69 20.6 63 63 WNW 7 11 30.10 1019 8 13 0.00 0.00
10:52 am 10:52 Partly Cloudy 85 29.4 69 20.6 59 59 W 6 9 30.09 1019 9 14 0.00 0.00
11:52 am 11:52 Mostly Cloudy 85 29.4 69 20.6 59 59 Calm 30.09 1019 9 14 0.00 0.00
12:52 pm 12:52 Mostly Cloudy 86 30 70 21.1 59 59 WSW 5 7 30.08 1019 9 14 0.00 0.00
1:52 pm 13:52 Mostly Cloudy 88 31.1 68 20 52 52 VRB 3 6 30.07 1018 9 14 0.00 0.00
2:52 pm 14:52 Partly Cloudy 90 32.2 69 20.6 50 50 W 6 9 30.05 1018 9 14 0.00 0.00
3:52 pm 15:52 Mostly Sunny 89 31.7 68 20 50 50 W 6 9 30.03 1017 8 13 0.00 0.00
4:52 pm 16:52 Partly Cloudy 90 32.2 69 20.6 50 50 WSW 5 7 30.02 1017 9 14 0.00 0.00
5:52 pm 17:52 Partly Cloudy 89 31.7 68 20 50 50 WSW 3 6 30.00 1016 9 14 0.00 0.00
6:52 pm 18:52 Partly Cloudy 89 31.7 68 20 50 50 W 6 9 30.00 1016 9 14 0.00 0.00
7:02 pm 19:02 Partly Cloudy with Thunderstorms 88 31.1 69 20.6 54 54 W 6 9 29.97 1015 9 14 0.00 0.00
7:52 pm 19:52 Mostly Cloudy with Nearby Thunderstorms 81 27.2 69 20.6 67 67 SSW 6 9 30.02 1017 9 14 0.00 0.00
8:23 pm 20:23 Mostly Cloudy 80 26.7 68 20 67 67 SSW 5 7 30.00 1016 10 16 0.00 0.00
8:52 pm 20:52 Mostly Cloudy 79 26.1 68 20 69 69 WSW 5 7 29.99 1016 9 14 0.00 0.00
9:52 pm 21:52 Partly Cloudy 78 25.6 66 18.9 67 67 Calm 30.00 1016 10 16 0.00 0.00
10:52 pm 22:52 Partly Cloudy 75 23.9 67 19.4 76 76 Calm 30.03 1017 10 16 0.00 0.00

Powered by AerisWeather